CPA123 VTSP-WMKP

Flight info

Callsign CPA123
Flight time 0h 42m
Altitude 18000
Route REBED REBE1A NUTGU DALAN VPL KAPKO OMBO1F
Aircraft B738/L-V/N

Departure

Time 2026-04-22 10:54
Airport Phuket International Airport (VTSP)

Arrival

Time 2026-04-22 11:37
Airport Penang International Airport (WMKP)
Time Latitude Longitude Altitude Speed Heading
2026-04-22 10:44 8.10843 98.30270 28 ft 0 kts 283°
2026-04-22 10:45 8.10842 98.30272 28 ft 2 kts 284°
2026-04-22 10:45 8.10830 98.30315 30 ft 10 kts 290°
2026-04-22 10:45 8.10810 98.30341 31 ft 1 kts 324°
2026-04-22 10:46 8.10787 98.30350 31 ft 0 kts
2026-04-22 10:46 8.10782 98.30349 31 ft 0 kts 15°
2026-04-22 10:52 8.10783 98.30349 31 ft 1 kts 15°
2026-04-22 10:52 8.10831 98.30361 31 ft 9 kts 14°
2026-04-22 10:52 8.10900 98.30379 31 ft 10 kts 14°
2026-04-22 10:52 8.10972 98.30397 32 ft 10 kts 11°
2026-04-22 10:53 8.11044 98.30370 30 ft 12 kts 323°
2026-04-22 10:53 8.11130 98.30349 28 ft 13 kts 354°
2026-04-22 10:53 8.11198 98.30392 29 ft 10 kts 78°
2026-04-22 10:53 8.11215 98.30546 31 ft 56 kts 84°
2026-04-22 10:54 8.11278 98.31244 44 ft 140 kts 85°
2026-04-22 10:54 8.11415 98.32407 485 ft 175 kts 83°
2026-04-22 10:54 8.11520 98.33663 1486 ft 172 kts 86°
2026-04-22 10:54 8.11615 98.34923 2041 ft 190 kts 84°
2026-04-22 10:55 8.11750 98.36359 2441 ft 215 kts 85°
2026-04-22 10:55 8.11901 98.37965 2774 ft 240 kts 84°
2026-04-22 10:55 8.12070 98.39761 3256 ft 256 kts 83°
2026-04-22 10:55 8.12252 98.41670 3928 ft 274 kts 84°
2026-04-22 10:56 8.12434 98.43618 4774 ft 282 kts 84°
2026-04-22 10:56 8.12623 98.45620 5653 ft 288 kts 83°
2026-04-22 10:56 8.12818 98.47691 6594 ft 291 kts 84°
2026-04-22 10:56 8.13010 98.49721 7440 ft 296 kts 84°
2026-04-22 10:57 8.13206 98.51807 8311 ft 299 kts 83°
2026-04-22 10:57 8.13408 98.53957 9177 ft 302 kts 84°
2026-04-22 10:57 8.13602 98.56078 9976 ft 307 kts 86°
2026-04-22 10:57 8.13268 98.58290 10339 ft 327 kts 115°
2026-04-22 10:58 8.11825 98.60116 10794 ft 335 kts 142°
2026-04-22 10:58 8.09752 98.61158 10798 ft 329 kts 167°
2026-04-22 10:58 8.07432 98.61449 10796 ft 329 kts 179°
2026-04-22 10:58 8.05127 98.61552 11558 ft 326 kts 179°
2026-04-22 10:59 8.02840 98.61621 12157 ft 334 kts 180°
2026-04-22 10:59 8.00528 98.61687 12860 ft 337 kts 180°
2026-04-22 10:59 7.98151 98.61764 13576 ft 340 kts 180°
2026-04-22 10:59 7.95778 98.61845 14274 ft 342 kts 180°
2026-04-22 11:00 7.93400 98.61929 14953 ft 345 kts 180°
2026-04-22 11:00 7.90975 98.62015 15616 ft 348 kts 180°
2026-04-22 11:00 7.88529 98.62103 16248 ft 351 kts 180°
2026-04-22 11:00 7.86087 98.62189 16870 ft 353 kts 180°
2026-04-22 11:01 7.83576 98.62279 17494 ft 356 kts 179°
2026-04-22 11:01 7.81110 98.62368 17766 ft 357 kts 180°
2026-04-22 11:01 7.78568 98.62459 17784 ft 366 kts 180°
2026-04-22 11:01 7.75990 98.62616 17778 ft 376 kts 173°
2026-04-22 11:02 7.73427 98.63262 17790 ft 385 kts 161°
2026-04-22 11:02 7.70941 98.64438 17791 ft 393 kts 151°
2026-04-22 11:02 7.68618 98.66004 17781 ft 400 kts 144°
2026-04-22 11:02 7.66425 98.67757 17778 ft 402 kts 143°
2026-04-22 11:03 7.64254 98.69520 17776 ft 403 kts 142°
2026-04-22 11:03 7.62078 98.71299 17776 ft 403 kts 142°
2026-04-22 11:03 7.59909 98.73077 17776 ft 404 kts 142°
2026-04-22 11:03 7.57737 98.74860 17776 ft 404 kts 142°
2026-04-22 11:04 7.55566 98.76642 17776 ft 404 kts 142°
2026-04-22 11:04 7.53362 98.78452 17776 ft 404 kts 142°
2026-04-22 11:04 7.51186 98.80241 17776 ft 404 kts 142°
2026-04-22 11:04 7.48988 98.82046 17776 ft 404 kts 142°
2026-04-22 11:05 7.46779 98.83861 17776 ft 404 kts 142°
2026-04-22 11:05 7.44560 98.85681 17776 ft 404 kts 142°
2026-04-22 11:05 7.42351 98.87491 17779 ft 404 kts 142°
2026-04-22 11:05 7.40135 98.89305 17775 ft 404 kts 142°
2026-04-22 11:06 7.37950 98.91092 17776 ft 404 kts 142°
2026-04-22 11:06 7.35696 98.92935 17772 ft 404 kts 142°
2026-04-22 11:06 7.33503 98.94728 17768 ft 405 kts 142°
2026-04-22 11:06 7.31284 98.96542 17764 ft 405 kts 142°
2026-04-22 11:07 7.29085 98.98340 17763 ft 405 kts 142°
2026-04-22 11:07 7.26871 99.00149 17757 ft 405 kts 142°
2026-04-22 11:07 7.24658 99.01958 17754 ft 405 kts 142°
2026-04-22 11:07 7.22456 99.03758 17747 ft 405 kts 142°
2026-04-22 11:08 7.20234 99.05574 17751 ft 405 kts 142°
2026-04-22 11:08 7.18016 99.07388 17750 ft 405 kts 142°
2026-04-22 11:08 7.15801 99.09198 17750 ft 406 kts 142°
2026-04-22 11:08 7.13594 99.10992 17751 ft 408 kts 140°
2026-04-22 11:09 7.11390 99.12795 17751 ft 410 kts 140°
2026-04-22 11:09 7.09153 99.14625 17752 ft 411 kts 140°
2026-04-22 11:09 7.06921 99.16454 17754 ft 410 kts 140°
2026-04-22 11:09 7.04674 99.18292 17751 ft 411 kts 140°
2026-04-22 11:10 7.02451 99.20111 17751 ft 411 kts 140°
2026-04-22 11:10 7.00163 99.21995 17740 ft 401 kts 143°
2026-04-22 11:10 6.97968 99.23787 17755 ft 404 kts 143°
2026-04-22 11:10 6.95801 99.25557 17751 ft 406 kts 143°
2026-04-22 11:11 6.93609 99.27347 17751 ft 407 kts 143°
2026-04-22 11:11 6.91378 99.29171 17753 ft 407 kts 143°
2026-04-22 11:11 6.89160 99.30984 17750 ft 407 kts 143°
2026-04-22 11:11 6.86941 99.32799 17752 ft 407 kts 143°
2026-04-22 11:12 6.84743 99.34596 17752 ft 407 kts 143°
2026-04-22 11:12 6.82534 99.36402 17752 ft 408 kts 143°
2026-04-22 11:12 6.80311 99.38219 17752 ft 408 kts 143°
2026-04-22 11:12 6.78104 99.40025 17752 ft 407 kts 143°
2026-04-22 11:13 6.75896 99.41831 17752 ft 407 kts 143°
2026-04-22 11:13 6.73699 99.43628 17752 ft 407 kts 143°
2026-04-22 11:13 6.71500 99.45427 17754 ft 408 kts 143°
2026-04-22 11:13 6.69285 99.47239 17752 ft 408 kts 143°
2026-04-22 11:14 6.67071 99.49050 17750 ft 408 kts 143°
2026-04-22 11:14 6.64860 99.50859 17755 ft 407 kts 143°
2026-04-22 11:14 6.62678 99.52644 17752 ft 408 kts 143°
2026-04-22 11:14 6.60468 99.54452 17752 ft 407 kts 143°
2026-04-22 11:15 6.58243 99.56273 17755 ft 407 kts 143°
2026-04-22 11:15 6.56031 99.58083 17755 ft 407 kts 143°
2026-04-22 11:15 6.53807 99.59901 17752 ft 406 kts 143°
2026-04-22 11:15 6.51667 99.61656 17734 ft 386 kts 143°
2026-04-22 11:16 6.49620 99.63335 17741 ft 370 kts 143°
2026-04-22 11:16 6.47628 99.64966 17749 ft 366 kts 143°
2026-04-22 11:16 6.45624 99.66590 17745 ft 364 kts 144°
2026-04-22 11:16 6.43602 99.68170 17747 ft 363 kts 145°
2026-04-22 11:17 6.41600 99.69733 17752 ft 363 kts 145°
2026-04-22 11:17 6.39605 99.71293 17746 ft 363 kts 145°
2026-04-22 11:17 6.37603 99.72860 17748 ft 363 kts 145°
2026-04-22 11:17 6.35620 99.74385 17524 ft 351 kts 149°
2026-04-22 11:18 6.33509 99.75566 17188 ft 339 kts 157°
2026-04-22 11:18 6.31320 99.76617 16848 ft 354 kts 158°
2026-04-22 11:18 6.29082 99.77649 16481 ft 348 kts 158°
2026-04-22 11:18 6.26903 99.78673 16122 ft 335 kts 158°
2026-04-22 11:19 6.24744 99.79698 15807 ft 349 kts 158°
2026-04-22 11:19 6.22536 99.80753 15427 ft 348 kts 157°
2026-04-22 11:19 6.20368 99.81794 15074 ft 334 kts 157°
2026-04-22 11:19 6.18269 99.82801 14769 ft 344 kts 157°
2026-04-22 11:20 6.16092 99.83842 14412 ft 346 kts 157°
2026-04-22 11:20 6.13948 99.84872 14055 ft 334 kts 157°
2026-04-22 11:20 6.11862 99.85874 13760 ft 338 kts 157°
2026-04-22 11:20 6.09708 99.86904 13422 ft 345 kts 157°
2026-04-22 11:21 6.07583 99.87925 13080 ft 333 kts 157°
2026-04-22 11:21 6.05502 99.88924 12778 ft 331 kts 157°
2026-04-22 11:21 6.03343 99.89957 12453 ft 342 kts 157°
2026-04-22 11:21 6.01220 99.90976 12123 ft 331 kts 156°
2026-04-22 11:22 5.99164 99.91964 11825 ft 327 kts 156°
2026-04-22 11:22 5.97029 99.92985 11518 ft 337 kts 156°
2026-04-22 11:22 5.94947 99.93984 11210 ft 325 kts 156°
2026-04-22 11:22 5.92931 99.94952 10913 ft 313 kts 156°
2026-04-22 11:23 5.90963 99.95898 10627 ft 303 kts 156°
2026-04-22 11:23 5.89081 99.96800 10360 ft 294 kts 156°
2026-04-22 11:23 5.87260 99.97675 10101 ft 286 kts 156°
2026-04-22 11:23 5.85412 99.98559 9879 ft 299 kts 156°
2026-04-22 11:24 5.83529 99.99461 9598 ft 295 kts 156°
2026-04-22 11:24 5.81666 100.00355 9334 ft 287 kts 156°
2026-04-22 11:24 5.79897 100.01202 9093 ft 282 kts 155°
2026-04-22 11:24 5.78058 100.02082 8865 ft 296 kts 155°
2026-04-22 11:25 5.76195 100.02975 8600 ft 288 kts 156°
2026-04-22 11:25 5.74409 100.03896 8349 ft 280 kts 147°
2026-04-22 11:25 5.72924 100.05197 8129 ft 289 kts 130°
2026-04-22 11:25 5.71734 100.06893 7871 ft 291 kts 120°
2026-04-22 11:26 5.70647 100.08681 7607 ft 290 kts 120°
2026-04-22 11:26 5.69620 100.10415 7376 ft 290 kts 120°
2026-04-22 11:26 5.68583 100.12172 7148 ft 289 kts 120°
2026-04-22 11:26 5.67551 100.13915 6921 ft 287 kts 119°
2026-04-22 11:27 5.66524 100.15646 6693 ft 285 kts 119°
2026-04-22 11:27 5.65487 100.17394 6466 ft 285 kts 120°
2026-04-22 11:27 5.64467 100.19112 6240 ft 283 kts 120°
2026-04-22 11:27 5.63457 100.20810 6018 ft 281 kts 119°
2026-04-22 11:28 5.62443 100.22516 5796 ft 279 kts 121°
2026-04-22 11:28 5.61420 100.24240 5572 ft 282 kts 121°
2026-04-22 11:28 5.60427 100.25911 5367 ft 278 kts 120°
2026-04-22 11:28 5.59453 100.27546 5161 ft 270 kts 120°
2026-04-22 11:29 5.58502 100.29140 4968 ft 261 kts 119°
2026-04-22 11:29 5.57576 100.30700 4776 ft 255 kts 121°
2026-04-22 11:29 5.56667 100.32225 4587 ft 248 kts 121°
2026-04-22 11:29 5.55786 100.33703 4408 ft 243 kts 121°
2026-04-22 11:30 5.54897 100.35139 4242 ft 238 kts 129°
2026-04-22 11:30 5.53841 100.36368 4068 ft 233 kts 134°
2026-04-22 11:30 5.52729 100.37560 3901 ft 229 kts 133°
2026-04-22 11:30 5.51642 100.38705 3739 ft 226 kts 134°
2026-04-22 11:31 5.50561 100.39851 3579 ft 223 kts 132°
2026-04-22 11:31 5.49395 100.40901 3350 ft 223 kts 149°
2026-04-22 11:31 5.47975 100.41499 3120 ft 221 kts 169°
2026-04-22 11:31 5.46466 100.41590 2914 ft 217 kts 190°
2026-04-22 11:32 5.45050 100.41177 2735 ft 208 kts 210°
2026-04-22 11:32 5.43732 100.40654 2547 ft 205 kts 188°
2026-04-22 11:32 5.42249 100.40810 2418 ft 210 kts 166°
2026-04-22 11:32 5.40846 100.40904 2264 ft 193 kts 197°
2026-04-22 11:33 5.39683 100.40301 2259 ft 182 kts 223°
2026-04-22 11:33 5.38770 100.39460 2286 ft 167 kts 227°
2026-04-22 11:33 5.37939 100.38636 2272 ft 159 kts 229°
2026-04-22 11:33 5.37214 100.37859 1960 ft 153 kts 233°
2026-04-22 11:34 5.36564 100.36925 1273 ft 166 kts 243°
2026-04-22 11:34 5.35991 100.36005 1053 ft 149 kts 240°
2026-04-22 11:34 5.35475 100.35083 654 ft 145 kts 244°
2026-04-22 11:34 5.35001 100.34234 525 ft 139 kts 243°
2026-04-22 11:35 5.34517 100.33371 541 ft 145 kts 243°
2026-04-22 11:35 5.34037 100.32469 578 ft 143 kts 241°
2026-04-22 11:35 5.33524 100.31599 585 ft 145 kts 236°
2026-04-22 11:35 5.32929 100.30767 594 ft 147 kts 229°
2026-04-22 11:36 5.32200 100.30014 447 ft 148 kts 226°
2026-04-22 11:36 5.31478 100.29307 238 ft 139 kts 224°
2026-04-22 11:36 5.30791 100.28664 50 ft 128 kts 224°
2026-04-22 11:36 5.30236 100.28157 21 ft 72 kts 221°
2026-04-22 11:37 5.29979 100.27924 21 ft 50 kts 223°
2026-04-22 11:37 5.29727 100.27693 21 ft 42 kts 222°
2026-04-22 11:37 5.29507 100.27496 21 ft 42 kts 223°
2026-04-22 11:37 5.29292 100.27302 21 ft 41 kts 224°
2026-04-22 11:38 5.29104 100.27131 21 ft 28 kts 221°
2026-04-22 11:38 5.29083 100.27023 21 ft 18 kts 309°
2026-04-22 11:38 5.29264 100.26823 24 ft 13 kts 312°
2026-04-22 11:39 5.29312 100.26769 26 ft 8 kts 312°
2026-04-22 11:39 5.29330 100.26749 26 ft 1 kts 312°
2026-04-22 11:39 5.29332 100.26747 26 ft 0 kts 313°